Location: Home
(42.5358°N, 72.7383°W)
Time: 07:06:32
(UTC-05:00)

Courier 1B - Pass Details

Date: 06 December 2021
Orbit: 962 x 1209 km, 28.3° (Epoch: 25 January)

Event Time Altitude Azimuth Distance (km) Brightness Sun altitude
Rises 17:47:01 0° 250° (WSW) 4,032 12.6 -15.9°
Reaches altitude 10° 17:50:25 10° 238° (WSW) 3,034 11.3 -16.5°
Maximum altitude 17:56:16 25° 186° (S) 2,050 9.4 -17.5°
Drops below altitude 10° 18:01:52 10° 134° (SE) 2,887 9.7 -18.5°
Enters shadow 18:02:30 - 131° (SE) 3,059 9.8 -18.6°
Sets 18:05:01 0° 121° (ESE) 3,798 - -19.1°
